Miscellaneous Local Product
Issued by NWS Hastings, NE

Home | Current Version | Previous Version | Graphics & Text | Print | Product List | Glossary On
Versions: 1 2 3 4 5 6 7 8 9 10 11 12 13 14 15 16 17 18 19 20 21 22 23 24 25 26 27 28 29 30 31 32 33 34 35 36 37 38 39 40 41 42 43 44 45 46 47 48 49 50
000
AXUS43 KGID 020502
MISGRI

GID CWA HOURLY WEATHER ROUNDUP
NATIONAL WEATHER SERVICE HASTINGS NE
1200 AM CDT THU JUL 02 2015

NOTE: "FAIR" INDICATES FEW OR NO CLOUDS BELOW 12,000 FEET WITH NO
SIGNIFICANT WEATHER AND/OR OBSTRUCTIONS TO VISIBILITY.

...SOUTH CENTRAL NEBRASKA...

CITY           SKY/WX    TMP DP  RH WIND       PRES   REMARKS
GRAND ISLAND   PTCLDY    72  68  87 NE7       29.94R
HASTINGS       CLOUDY    73  68  84 NE7       29.93R HAZE
KEARNEY        MOCLDY    72  66  83 NE6       29.94R

...NEBRASKA PANHANDLE...

CITY           SKY/WX    TMP DP  RH WIND       PRES   REMARKS
CHADRON        MOCLDY    69  62  78 CALM      29.97F
ALLIANCE       CLOUDY    68  60  75 SE6       30.04F
SCOTTSBLUFF    MOCLDY    68  62  81 SE6       30.04F
SIDNEY         LGT RAIN  66  61  84 SE12      30.10S

...WESTERN AND NORTH CENTRAL NEBRASKA...

CITY           SKY/WX    TMP DP  RH WIND       PRES   REMARKS
VALENTINE      PTCLDY    68  64  87 NE3       29.98S
BROKEN BOW     PTCLDY    67  64  90 CALM      29.96S
IMPERIAL       MOCLDY    78  55  44 S8        30.03R
NORTH PLATTE   MOCLDY    71  61  70 NE9       29.97S
MCCOOK         CLOUDY    76  66  71 CALM      29.96R

...EASTERN NEBRASKA...

CITY           SKY/WX    TMP DP  RH WIND       PRES   REMARKS
NORFOLK        CLEAR     68  66  93 E6        29.95R
SO SIOUX CITY  PTCLDY    66  58  75 E7        29.96R
TEKAMAH        CLOUDY    70  64  81 E7        29.93S
COLUMBUS       CLEAR    N/A N/A N/A E8        29.93R
OMAHA EPPLEY   PTCLDY    70  65  84 E5        29.92S
OFFUTT AFB     CLEAR     69  65  86 NE9       29.91S
LINCOLN        CLOUDY    73  67  81 E12       29.91S
FALLS CITY     CLOUDY    73  69  87 NE8       29.88R

...NORTHERN KANSAS...

CITY           SKY/WX    TMP DP  RH WIND       PRES   REMARKS
GOODLAND       CLOUDY    69  61  75 W9        30.05S
HILL CITY      MOCLDY    76  60  57 E3        29.93S
NORTON         CLEAR     73  61  64 CALM      29.94S
PHILLIPSBURG   CLEAR     81  66  61 CALM      29.91S
SMITH CENTER   CLEAR     73  66  78 NE8       29.90F
HAYS           CLOUDY    77  61  57 NE8       29.91S
RUSSELL        CLOUDY    78  67  68 NE6       29.89R
CONCORDIA      MOCLDY    75  70  84 NE5       29.88R
SALINA         CLOUDY    83  69  62 NE7       29.85R
TOPEKA         CLEAR     77  74  90 NE5       29.82S



USA.gov is the U.S. government's official web portal to all federal, state and local government web resources and services.